Location: Pella
(41.4080°N, 92.9160°W)
Time: 17:40:52
(UTC-05:00)

Iridium 91 - Visible Passes

Search period start: 19 August 2017 00:00
Search period end: 29 August 2017 00:00
Orbit: 776 x 779 km, 86.4° (Epoch: 19 August)

Date Brightness Start Highest point End Pass type
(mag) Time Alt. Az. Time Alt. Az. Time Alt. Az.
19 Aug 5.5 20:39:54 10° S 20:45:06 79° E 20:50:20 10° N visible
19 Aug 8.5 22:24:27 10° W 22:26:27 12° WNW 22:28:29 10° NW visible
20 Aug 8.0 21:48:34 10° SW 21:52:33 22° WNW 21:56:36 10° NNW visible
21 Aug 7.0 21:13:57 10° SSW 21:18:49 39° W 21:23:42 10° NNW visible
22 Aug 5.8 20:40:00 10° S 20:45:11 73° W 20:50:25 10° N visible
23 Aug 8.4 21:49:48 10° WSW 21:52:51 16° WNW 21:55:55 10° NW visible
24 Aug 7.7 21:14:36 10° SW 21:19:01 28° W 21:23:28 10° NNW visible
25 Aug 6.6 20:40:16 10° SSW 20:45:19 50° W 20:50:24 10° N visible
26 Aug 8.9 21:52:14 10° W 21:53:12 10° WNW 21:54:11 10° WNW visible
27 Aug 8.3 21:15:33 10° WSW 21:19:17 20° WNW 21:23:01 10° NNW visible
28 Aug 9.2 06:04:58 10° NE 06:07:20 13° ENE 06:09:42 10° E visible
28 Aug 7.4 20:40:46 10° SW 20:45:29 35° W 20:50:15 10° NNW visible
